Regional Weather Roundup
Issued by NWS Bismarck, ND

Home | Current Version | Previous Version | Text Only | Print | Product List | Glossary On
Versions: 1 2 3 4 5 6 7 8 9 10 11 12 13 14 15 16 17 18 19 20 21 22 23 24 25 26 27 28 29 30 31 32 33 34 35 36 37 38 39 40 41 42 43 44 45 46 47 48 49 50
000
ASUS43 KBIS 200210
RWRBIS

NWR BROADCAST TEXT
NATIONAL WEATHER SERVICE BISMARCK ND
800 PM CST SUN FEB 19 2017

NOTE: "FAIR" INDICATES FEW OR NO CLOUDS BELOW 12,000 FEET WITH NO
SIGNIFICANT WEATHER AND/OR OBSTRUCTIONS TO VISIBILITY.


CITY           SKY/WX    TMP DP  RH WIND       PRES   REMARKS
WILLISTON      FOG       33  32  96 N9        29.54R VSB 1/2
MINOT          FAIR      32  30  92 NW3       29.51S
MINOT AFB      FAIR      31  29  95 CALM      29.51S
BISMARCK       FAIR      37  35  92 E8        29.53R
DICKINSON      FAIR      44  36  73 NE6       29.47R
GARRISON         N/A     34  32  92 CALM      29.51R
HETTINGER ARPT FAIR      44  36  73 E5        29.48S
JAMESTOWN      FAIR      43  41  93 SE10      29.55R
CARRINGTON     FAIR      37  36  93 SE12      29.56S FOG
HAZEN            N/A    N/A N/A N/A N3        29.52R
MANDAN         FAIR      37  36  93 E6        29.53R
RUGBY            N/A     34  34 100 E9        29.53S
STANLEY        FOG       32  32 100 CALM      29.55R VSB 1/4
TIOGA          FOG       32  32 100 E5        29.55R VSB 1/4
WATFORD CITY   FAIR      32  32 100 CALM      29.52R
$$

CITY           SKY/WX    TMP DP  RH WIND       PRES   REMARKS
GRAND FORKS    MOCLDY    41  33  73 SE10      29.62F
GRAND FORKS AF FAIR      40  37  88 SE12      29.61F
DEVILS LAKE    FAIR      36  35  96 SE8       29.57R FOG
FARGO          FAIR      51  45  79 SE17G25   29.63S
CAVALIER       FAIR      37  32  81 SE6       29.62F
GRAFTON        FAIR      36  34  93 E13       29.63F
GWINNER        FAIR      48  46  93 SE12      29.60S
ROLLA          CLOUDY    32  32 100 SE3       29.57S
$$

CITY           SKY/WX    TMP DP  RH WIND       PRES   REMARKS
ABERDEEN       FAIR      51  46  83 S15       29.57S
MOBRIDGE       FAIR      44  35  70 SE6       29.49R
BUFFALO          N/A     54  36  50 N12       29.42R
RAPID CITY     FAIR      57  32  38 SW12      29.53R
GLASGOW        FOG       32  31  96 S9        29.56R VSB 1/4
SIDNEY         FAIR      34  32  92 N6        29.53R
WOLF POINT     FOG       34  32  92 SW3       29.57R VSB 1
GLENDIVE       FAIR      40  35  83 N5        29.52R
MILES CITY     CLOUDY    46  36  68 NW9       29.53R
BAKER          FAIR      40  35  83 NE3       29.50R
$$

CITY           SKY/WX    TMP DP  RH WIND       PRES   REMARKS
BILLINGS       MOCLDY    43  29  57 N8        29.59R
GREAT FALLS    FAIR      33  21  61 SW8       29.55R
REGINA         DRIZZLE   32  32 100 SE9       29.57S
ESTEVAN        CLOUDY    32  32 100 SE7       29.55R FOG
$$





USA.gov is the U.S. government's official web portal to all federal, state and local government web resources and services.